Home > Weather > Bryansk > Past weeks

Flag for Russia Weather for the Past 2 Weeks in Bryansk, Russia

Now
30 °F

Clear.


Feels Like: 21 °F
Forecast: 19 / 34 °F
Wind: 10 mph from West

Location: Brjansk

Current Time: Feb 6, 2016 at 6:27:05 AM

Latest Report: Feb 6, 2016 at 5:00 AM


Visibility: 10 mi

Pressure: 29.98 "Hg

Humidity: 80%

Dew point: 25 °F

Location of BryanskLocation

Historic Weather in Bryansk — Graph

°F

Bryansk Temperature Yesterday

Maximum temperature yesterday: 34 °F (at 10:30 AM)
Minimum temperature yesterday: 30 °F (at 7:00 AM)
Average temperature yesterday: 33 °F

High & Low Weather Summary for the Past Weeks

 TemperatureHumidityPressure
High39 °F (Feb 3, 1:30 PM)100% (Jan 27, 5:00 PM)30.39 "Hg (Jan 27, 5:00 PM)
Low1 °F (Jan 24, 5:30 PM)65% (Jan 29, 12:00 PM)29.45 "Hg (Jan 31, 5:00 PM)
Average27 °F86%29.88 "Hg
* Reported Jan 22 9:00 AM — Feb 6 5:00 AM, Bryansk, Weather by CustomWeather, © 2016

Note: Actual official high and low records may vary slightly from our data, if they occured in-between our weather recording intervals... More about our weather records

Advertising

Bryansk Weather History for the Previous 24 Hours

 ConditionsComfort  
Time TempWeatherWind HumidityBarometerVisibility
5:00 AM
Sat, Feb 6
30 °FClear.10 mph80%29.98 "Hg10 mi
6:30 PM
Fri, Feb 5
32 °FOvercast.10 mph75%29.92 "HgN/A
6:00 PM32 °FOvercast.10 mph75%29.92 "HgN/A
5:30 PM32 °FOvercast.10 mph75%29.92 "HgN/A
5:00 PM34 °FOvercast.10 mph65%29.89 "HgN/A
4:30 PM34 °FOvercast.10 mph70%29.89 "HgN/A
4:00 PM34 °FPartly sunny.13 mph70%29.89 "HgN/A
3:30 PM34 °FPartly sunny.13 mph65%29.89 "HgN/A
3:00 PM34 °FPartly sunny.13 mph65%29.89 "HgN/A
2:30 PM34 °FPartly sunny.13 mph70%29.89 "HgN/A
2:00 PM34 °FPartly sunny.8 mph75%29.89 "HgN/A
1:30 PM34 °FPartly sunny.10 mph81%29.89 "HgN/A
1:00 PM34 °FPartly sunny.10 mph75%29.89 "HgN/A
12:30 PM34 °FLight snow. Partly sunny.13 mph81%29.86 "HgN/A
12:00 PM34 °FPartly sunny.13 mph81%29.86 "HgN/A
11:30 AM34 °FPartly sunny.13 mph81%29.86 "HgN/A
11:00 AM34 °FPartly sunny.10 mph81%29.86 "HgN/A
10:30 AM34 °FScattered clouds.10 mph81%29.83 "HgN/A
10:00 AM32 °FPartly sunny.10 mph87%29.83 "HgN/A
9:30 AM32 °FSnow flurries. Partly sunny.10 mph87%29.83 "HgN/A
9:00 AM32 °FSnow flurries. Mostly cloudy.10 mph87%29.80 "HgN/A
8:30 AM32 °FPassing clouds.10 mph87%29.80 "HgN/A
8:00 AM32 °FPassing clouds.10 mph87%29.80 "HgN/A
7:00 AM30 °FPassing clouds.8 mph93%29.77 "HgN/A
6:00 AM32 °FPassing clouds.8 mph87%29.77 "HgN/A
Weather by CustomWeather, © 2016

See weather overviewHow to use our weather pages